IRIDIUM 168

Last updated on Fri Sep 11 2026 00:03:06 GMT+0000 (Coordinated Universal Time)

1 43924U 19002C 26253.24720317 .00000153 00000+0 47641-4 0 9992 2 43924 86.3992 318.1413 0002249 96.1883 263.9569 14.34217007401165
UTC large
Height (km)
Speed (km/s)
/
Latitude / Longitude
Inclination (degrees)
Orbital Period (minutes)
Azimuth
Elevation
Range (km)
Doppler Factor

Next 0 passes for location: London (51.5072 / 0.1276)

No passes found over London.
IRIDIUM 168